Time,TemperatureF,DewpointF,PressureIn,WindDirection,WindDirectionDegrees,WindSpeedMPH,WindSpeedGustMPH,Humidity,HourlyPrecipIn,Conditions,Clouds,dailyrainin,SoftwareType,DateUTC
2013-03-11 00:03:00,38.0,34.0,30.33,SW,232,2.0,6.0,85,0.00,,,0.00,,2013-03-11 04:03:00,
2013-03-11 00:12:00,38.0,34.0,30.33,SW,232,2.0,6.0,85,0.00,,,0.00,,2013-03-11 04:12:00,
2013-03-11 00:22:00,38.0,34.0,30.32,SW,232,2.0,6.0,85,0.00,,,0.00,,2013-03-11 04:22:00,
2013-03-11 00:33:00,37.0,33.0,30.32,WSW,249,1.0,11.0,86,0.00,,,0.00,,2013-03-11 04:33:00,
2013-03-11 00:43:00,37.0,33.0,30.32,WSW,249,1.0,11.0,86,0.00,,,0.00,,2013-03-11 04:43:00,
2013-03-11 00:53:00,37.0,33.0,30.32,WSW,249,2.0,6.0,86,0.00,,,0.00,,2013-03-11 04:53:00,
2013-03-11 01:04:00,37.0,33.0,30.32,West,266,0.0,3.0,86,0.00,,,0.00,,2013-03-11 05:04:00,
2013-03-11 01:12:00,37.0,33.0,30.32,West,266,0.0,3.0,86,0.00,,,0.00,,2013-03-11 05:12:00,
2013-03-11 01:22:00,37.0,33.0,30.30,ESE,109,0.0,1.0,86,0.00,,,0.00,,2013-03-11 05:22:00,
2013-03-11 01:32:00,37.0,34.0,30.30,ESE,121,0.0,4.0,87,0.00,,,0.00,,2013-03-11 05:32:00,
2013-03-11 01:43:00,37.0,34.0,30.30,ESE,121,0.0,4.0,87,0.00,,,0.00,,2013-03-11 05:43:00,
2013-03-11 01:52:00,38.0,34.0,30.30,WSW,243,0.0,3.0,87,0.00,,,0.00,,2013-03-11 05:52:00,
2013-03-11 02:02:00,38.0,34.0,30.29,WSW,248,1.0,6.0,87,0.00,,,0.00,,2013-03-11 06:02:00,
2013-03-11 02:12:00,38.0,34.0,30.29,WSW,248,1.0,6.0,87,0.00,,,0.00,,2013-03-11 06:12:00,
2013-03-11 02:22:00,38.0,34.0,30.29,WSW,242,2.0,6.0,87,0.00,,,0.00,,2013-03-11 06:22:00,
2013-03-11 02:33:00,38.0,34.0,30.29,WSW,249,2.0,5.0,87,0.00,,,0.00,,2013-03-11 06:33:00,
2013-03-11 02:42:00,38.0,34.0,30.29,WSW,249,2.0,5.0,87,0.00,,,0.00,,2013-03-11 06:42:00,
2013-03-11 02:52:00,38.0,34.0,30.29,SW,221,2.0,6.0,87,0.00,,,0.00,,2013-03-11 06:52:00,
2013-03-11 03:03:00,38.0,34.0,30.29,SW,236,2.0,5.0,87,0.00,,,0.00,,2013-03-11 07:03:00,
2013-03-11 03:12:00,38.0,34.0,30.29,SW,236,2.0,5.0,87,0.00,,,0.00,,2013-03-11 07:12:00,
2013-03-11 03:22:00,38.0,35.0,30.28,ESE,115,0.0,6.0,88,0.00,,,0.00,,2013-03-11 07:22:00,
2013-03-11 03:32:00,38.0,35.0,30.28,SE,124,1.0,5.0,88,0.00,,,0.00,,2013-03-11 07:32:00,
2013-03-11 03:42:00,38.0,35.0,30.28,SE,124,1.0,5.0,88,0.00,,,0.00,,2013-03-11 07:42:00,
2013-03-11 03:52:00,38.0,35.0,30.28,WSW,240,1.0,3.0,88,0.00,,,0.00,,2013-03-11 07:52:00,
2013-03-11 04:02:00,38.0,35.0,30.27,West,272,0.0,5.0,88,0.00,,,0.00,,2013-03-11 08:02:00,
2013-03-11 04:12:00,38.0,35.0,30.27,West,272,0.0,5.0,88,0.00,,,0.00,,2013-03-11 08:12:00,
2013-03-11 04:22:00,38.0,35.0,30.27,SW,224,0.0,5.0,89,0.00,,,0.00,,2013-03-11 08:22:00,
2013-03-11 04:33:00,38.0,35.0,30.26,East,89,1.0,3.0,90,0.00,,,0.00,,2013-03-11 08:33:00,
2013-03-11 04:42:00,38.0,35.0,30.26,East,89,1.0,3.0,90,0.00,,,0.00,,2013-03-11 08:42:00,
2013-03-11 04:52:00,38.0,35.0,30.26,WSW,245,1.0,6.0,90,0.00,,,0.00,,2013-03-11 08:52:00,
2013-03-11 05:02:00,38.0,36.0,30.26,ENE,76,1.0,5.0,91,0.00,,,0.00,,2013-03-11 09:02:00,
2013-03-11 05:12:00,38.0,36.0,30.26,ENE,76,1.0,5.0,91,0.00,,,0.00,,2013-03-11 09:12:00,
2013-03-11 05:23:00,38.0,36.0,30.26,SE,138,1.0,2.0,91,0.00,,,0.00,,2013-03-11 09:23:00,
2013-03-11 05:32:00,38.0,36.0,30.26,SSE,156,0.0,3.0,91,0.00,,,0.00,,2013-03-11 09:32:00,
2013-03-11 05:42:00,38.0,36.0,30.26,SSE,156,0.0,3.0,91,0.00,,,0.00,,2013-03-11 09:42:00,
2013-03-11 05:52:00,38.0,36.0,30.25,SE,134,0.0,3.0,92,0.00,,,0.00,,2013-03-11 09:52:00,
2013-03-11 06:02:00,38.0,36.0,30.25,ESE,120,0.0,2.0,92,0.00,,,0.00,,2013-03-11 10:02:00,
2013-03-11 06:12:00,38.0,36.0,30.25,ESE,120,0.0,2.0,92,0.00,,,0.00,,2013-03-11 10:12:00,
2013-03-11 06:22:00,38.0,36.0,30.24,WSW,252,0.0,1.0,93,0.00,,,0.00,,2013-03-11 10:22:00,
2013-03-11 06:32:00,38.0,36.0,30.24,SSE,151,0.0,3.0,94,0.00,,,0.00,,2013-03-11 10:32:00,
2013-03-11 06:42:00,38.0,36.0,30.24,SSE,151,0.0,3.0,94,0.00,,,0.00,,2013-03-11 10:42:00,
2013-03-11 06:52:00,38.0,36.0,30.24,SE,136,0.0,2.0,94,0.00,,,0.00,,2013-03-11 10:52:00,
2013-03-11 07:02:00,38.0,37.0,30.24,SSE,154,0.0,2.0,95,0.00,,,0.00,,2013-03-11 11:02:00,
2013-03-11 07:12:00,38.0,37.0,30.24,SSE,154,0.0,2.0,95,0.00,,,0.00,,2013-03-11 11:12:00,
2013-03-11 07:22:00,38.0,37.0,30.24,SSE,154,0.0,2.0,95,0.00,,,0.00,,2013-03-11 11:22:00,
2013-03-11 07:33:00,39.0,38.0,30.24,ESE,106,0.0,1.0,95,0.00,,,0.00,,2013-03-11 11:33:00,
2013-03-11 07:42:00,39.0,38.0,30.24,ESE,106,0.0,1.0,95,0.00,,,0.00,,2013-03-11 11:42:00,
2013-03-11 07:53:00,39.0,37.0,30.23,East,98,0.0,2.0,94,0.00,,,0.00,,2013-03-11 11:53:00,
2013-03-11 08:02:00,39.0,38.0,30.24,East,98,0.0,2.0,95,0.00,,,0.00,,2013-03-11 12:02:00,
2013-03-11 08:12:00,39.0,38.0,30.24,East,98,0.0,2.0,95,0.00,,,0.00,,2013-03-11 12:12:00,
2013-03-11 08:22:00,39.0,37.0,30.24,East,101,0.0,1.0,94,0.00,,,0.00,,2013-03-11 12:22:00,
2013-03-11 08:32:00,39.0,37.0,30.24,East,101,0.0,1.0,94,0.00,,,0.00,,2013-03-11 12:32:00,
2013-03-11 08:43:00,39.0,37.0,30.24,East,101,0.0,1.0,94,0.00,,,0.00,,2013-03-11 12:43:00,
2013-03-11 08:53:00,39.0,37.0,30.24,East,101,0.0,1.0,94,0.00,,,0.00,,2013-03-11 12:53:00,
2013-03-11 09:02:00,41.0,39.0,30.24,East,97,0.0,3.0,93,0.00,,,0.00,,2013-03-11 13:02:00,
2013-03-11 09:12:00,41.0,39.0,30.24,East,97,0.0,3.0,93,0.00,,,0.00,,2013-03-11 13:12:00,
2013-03-11 09:22:00,41.0,39.0,30.25,SE,145,0.0,6.0,92,0.00,,,0.00,,2013-03-11 13:22:00,
2013-03-11 09:33:00,42.0,39.0,30.25,WSW,245,1.0,4.0,90,0.00,,,0.00,,2013-03-11 13:33:00,
2013-03-11 09:42:00,42.0,39.0,30.25,WSW,245,1.0,4.0,90,0.00,,,0.00,,2013-03-11 13:42:00,
2013-03-11 09:53:00,42.0,39.0,30.25,SE,136,2.0,7.0,90,0.00,,,0.00,,2013-03-11 13:53:00,
2013-03-11 10:02:00,43.0,40.0,30.25,ESE,110,3.0,10.0,88,0.00,,,0.00,,2013-03-11 14:02:00,
2013-03-11 10:12:00,43.0,40.0,30.25,ESE,110,3.0,10.0,88,0.00,,,0.00,,2013-03-11 14:12:00,
2013-03-11 10:22:00,44.0,40.0,30.25,SSE,158,2.0,9.0,86,0.00,,,0.00,,2013-03-11 14:22:00,
2013-03-11 10:33:00,44.0,40.0,30.25,SW,230,1.0,7.0,86,0.00,,,0.00,,2013-03-11 14:33:00,
2013-03-11 10:42:00,44.0,40.0,30.25,SW,230,1.0,7.0,86,0.00,,,0.00,,2013-03-11 14:42:00,
2013-03-11 10:53:00,45.0,41.0,30.25,WSW,237,3.0,9.0,85,0.00,,,0.00,,2013-03-11 14:53:00,
2013-03-11 11:03:00,45.0,40.0,30.24,SSW,193,3.0,8.0,84,0.00,,,0.00,,2013-03-11 15:03:00,
2013-03-11 11:13:00,45.0,40.0,30.24,SSW,193,3.0,8.0,84,0.00,,,0.00,,2013-03-11 15:13:00,
2013-03-11 11:23:00,45.0,40.0,30.24,ESE,112,3.0,10.0,83,0.00,,,0.00,,2013-03-11 15:23:00,
2013-03-11 11:32:00,46.0,41.0,30.23,WNW,285,5.0,11.0,81,0.00,,,0.00,,2013-03-11 15:32:00,
2013-03-11 11:42:00,46.0,41.0,30.23,WNW,285,5.0,11.0,81,0.00,,,0.00,,2013-03-11 15:42:00,
2013-03-11 11:53:00,47.0,41.0,30.22,SE,139,1.0,10.0,81,0.00,,,0.00,,2013-03-11 15:53:00,
2013-03-11 12:02:00,47.0,41.0,30.23,ESE,120,1.0,7.0,79,0.00,,,0.00,,2013-03-11 16:02:00,
2013-03-11 12:13:00,47.0,41.0,30.23,ESE,120,1.0,7.0,79,0.00,,,0.00,,2013-03-11 16:13:00,
2013-03-11 12:22:00,48.0,41.0,30.23,WSW,238,2.0,10.0,76,0.00,,,0.00,,2013-03-11 16:22:00,
2013-03-11 12:32:00,49.0,41.0,30.23,SW,229,5.0,11.0,73,0.00,,,0.00,,2013-03-11 16:32:00,
2013-03-11 12:43:00,49.0,41.0,30.23,SW,229,5.0,11.0,73,0.00,,,0.00,,2013-03-11 16:43:00,
2013-03-11 12:52:00,49.0,40.0,30.22,West,269,3.0,8.0,72,0.00,,,0.00,,2013-03-11 16:52:00,
2013-03-11 13:02:00,50.0,41.0,30.21,West,280,5.0,9.0,70,0.00,,,0.00,,2013-03-11 17:02:00,
2013-03-11 13:16:00,50.0,41.0,30.21,West,280,5.0,9.0,70,0.00,,,0.00,,2013-03-11 17:16:00,
2013-03-11 13:28:00,50.0,40.0,30.21,WSW,254,4.0,9.0,69,0.00,,,0.00,,2013-03-11 17:28:00,
2013-03-11 13:37:00,51.0,40.0,30.20,ESE,122,3.0,9.0,67,0.00,,,0.00,,2013-03-11 17:37:00,
2013-03-11 13:42:00,51.0,40.0,30.20,ESE,122,3.0,9.0,67,0.00,,,0.00,,2013-03-11 17:42:00,
2013-03-11 13:53:00,51.0,40.0,30.19,SSE,148,3.0,11.0,67,0.00,,,0.00,,2013-03-11 17:53:00,
2013-03-11 14:02:00,51.0,40.0,30.19,WSW,243,2.0,11.0,67,0.00,,,0.00,,2013-03-11 18:02:00,
2013-03-11 14:12:00,51.0,40.0,30.19,WSW,243,2.0,11.0,67,0.00,,,0.00,,2013-03-11 18:12:00,
2013-03-11 14:23:00,52.0,41.0,30.19,SE,136,3.0,9.0,66,0.00,,,0.00,,2013-03-11 18:23:00,
2013-03-11 14:33:00,52.0,40.0,30.18,SSW,194,5.0,9.0,63,0.00,,,0.00,,2013-03-11 18:33:00,
2013-03-11 14:42:00,52.0,40.0,30.18,SSW,194,5.0,9.0,63,0.00,,,0.00,,2013-03-11 18:42:00,
2013-03-11 14:53:00,52.0,40.0,30.17,SE,145,4.0,7.0,64,0.00,,,0.00,,2013-03-11 18:53:00,
2013-03-11 15:02:00,53.0,40.0,30.17,SE,143,5.0,10.0,62,0.00,,,0.00,,2013-03-11 19:02:00,
2013-03-11 15:13:00,53.0,40.0,30.17,SE,143,5.0,10.0,62,0.00,,,0.00,,2013-03-11 19:13:00,
2013-03-11 15:23:00,53.0,40.0,30.16,SW,229,4.0,9.0,61,0.00,,,0.00,,2013-03-11 19:23:00,
2013-03-11 15:33:00,53.0,40.0,30.15,ESE,113,6.0,11.0,62,0.00,,,0.00,,2013-03-11 19:33:00,
2013-03-11 15:42:00,53.0,40.0,30.15,ESE,113,6.0,11.0,62,0.00,,,0.00,,2013-03-11 19:42:00,
2013-03-11 15:53:00,53.0,41.0,30.15,SSE,155,5.0,11.0,64,0.00,,,0.00,,2013-03-11 19:53:00,
2013-03-11 16:02:00,53.0,42.0,30.15,SSE,160,4.0,13.0,66,0.00,,,0.00,,2013-03-11 20:02:00,
2013-03-11 16:12:00,53.0,42.0,30.15,SSE,160,4.0,13.0,66,0.00,,,0.00,,2013-03-11 20:12:00,
2013-03-11 16:22:00,53.0,42.0,30.15,SE,146,4.0,12.0,67,0.00,,,0.00,,2013-03-11 20:22:00,
2013-03-11 16:32:00,52.0,42.0,30.14,ESE,113,3.0,10.0,69,0.00,,,0.00,,2013-03-11 20:32:00,
2013-03-11 16:43:00,52.0,42.0,30.14,ESE,113,3.0,10.0,69,0.00,,,0.00,,2013-03-11 20:43:00,
2013-03-11 16:53:00,52.0,43.0,30.14,ESE,111,5.0,-999.0,71,-99.99,,,-99.99,,2013-03-11 20:53:00,
2013-03-11 17:03:00,51.0,43.0,30.13,East,94,5.0,12.0,73,0.00,,,0.00,,2013-03-11 21:03:00,
2013-03-11 17:13:00,51.0,43.0,30.13,East,94,5.0,12.0,73,0.00,,,0.00,,2013-03-11 21:13:00,
2013-03-11 17:23:00,51.0,43.0,30.13,SE,134,4.0,12.0,75,0.00,,,0.00,,2013-03-11 21:23:00,
2013-03-11 17:32:00,51.0,44.0,30.13,ESE,121,5.0,15.0,76,0.00,,,0.00,,2013-03-11 21:32:00,
2013-03-11 17:44:00,51.0,44.0,30.13,ESE,121,5.0,15.0,76,0.00,,,0.00,,2013-03-11 21:44:00,
2013-03-11 17:53:00,50.0,43.0,30.13,SE,135,4.0,10.0,77,0.00,,,0.00,,2013-03-11 21:53:00,
2013-03-11 18:03:00,50.0,43.0,30.13,SE,129,3.0,13.0,78,0.00,,,0.00,,2013-03-11 22:03:00,
2013-03-11 18:12:00,50.0,43.0,30.13,SE,129,3.0,13.0,78,0.00,,,0.00,,2013-03-11 22:12:00,
2013-03-11 18:23:00,50.0,44.0,30.13,ENE,73,3.0,10.0,79,0.00,,,0.00,,2013-03-11 22:23:00,
2013-03-11 18:32:00,49.0,43.0,30.12,SE,137,5.0,14.0,80,0.00,,,0.00,,2013-03-11 22:32:00,
2013-03-11 18:43:00,49.0,43.0,30.12,SE,137,5.0,14.0,80,0.00,,,0.00,,2013-03-11 22:43:00,
2013-03-11 18:53:00,49.0,43.0,30.12,SE,137,5.0,14.0,80,0.00,,,0.00,,2013-03-11 22:53:00,
2013-03-11 19:03:00,49.0,43.0,30.12,SSW,201,1.0,6.0,81,0.00,,,0.00,,2013-03-11 23:03:00,
2013-03-11 19:12:00,49.0,43.0,30.12,SSW,201,1.0,6.0,81,0.00,,,0.00,,2013-03-11 23:12:00,
2013-03-11 19:22:00,49.0,44.0,30.11,SSE,158,4.0,12.0,82,0.00,,,0.00,,2013-03-11 23:22:00,
2013-03-11 19:32:00,49.0,44.0,30.12,SSW,213,5.0,11.0,84,0.00,,,0.00,,2013-03-11 23:32:00,
2013-03-11 19:43:00,49.0,44.0,30.12,SSW,213,5.0,11.0,84,0.00,,,0.00,,2013-03-11 23:43:00,
2013-03-11 19:54:00,49.0,44.0,30.12,SE,125,3.0,9.0,84,0.00,,,0.00,,2013-03-11 23:54:00,
2013-03-11 20:02:00,49.0,45.0,30.11,SSE,157,4.0,11.0,85,0.00,,,0.00,,2013-03-12 00:02:00,
2013-03-11 20:13:00,49.0,45.0,30.11,SSE,157,4.0,11.0,85,0.00,,,0.00,,2013-03-12 00:13:00,
2013-03-11 20:23:00,49.0,45.0,30.12,SSW,193,3.0,11.0,86,0.00,,,0.00,,2013-03-12 00:23:00,
2013-03-11 20:33:00,49.0,45.0,30.13,WSW,245,2.0,9.0,86,0.00,,,0.00,,2013-03-12 00:33:00,
2013-03-11 20:43:00,49.0,45.0,30.13,WSW,245,2.0,9.0,86,0.00,,,0.00,,2013-03-12 00:43:00,
2013-03-11 20:54:00,49.0,45.0,30.13,ESE,122,2.0,10.0,87,0.00,,,0.00,,2013-03-12 00:54:00,
2013-03-11 21:02:00,49.0,45.0,30.13,ESE,122,2.0,10.0,87,0.00,,,0.00,,2013-03-12 01:02:00,
2013-03-11 21:12:00,49.0,45.0,30.13,ESE,122,2.0,10.0,87,0.00,,,0.00,,2013-03-12 01:12:00,
2013-03-11 21:22:00,49.0,46.0,30.11,South,171,2.0,7.0,88,0.00,,,0.00,,2013-03-12 01:22:00,
2013-03-11 21:33:00,49.0,46.0,30.11,South,171,2.0,7.0,88,0.00,,,0.00,,2013-03-12 01:33:00,
2013-03-11 21:42:00,49.0,46.0,30.11,South,171,2.0,7.0,88,0.00,,,0.00,,2013-03-12 01:42:00,
2013-03-11 21:53:00,48.0,45.0,30.11,SSW,203,2.0,8.0,90,0.00,,,0.00,,2013-03-12 01:53:00,
2013-03-11 22:02:00,48.0,45.0,30.11,West,259,5.0,16.0,91,0.00,,,0.00,,2013-03-12 02:02:00,
2013-03-11 22:13:00,48.0,45.0,30.11,West,259,5.0,16.0,91,0.00,,,0.00,,2013-03-12 02:13:00,
2013-03-11 22:22:00,48.0,46.0,30.11,South,174,3.0,12.0,92,0.00,,,0.00,,2013-03-12 02:22:00,
2013-03-11 22:32:00,47.0,45.0,30.11,SE,127,4.0,13.0,93,0.00,,,0.00,,2013-03-12 02:32:00,
2013-03-11 22:42:00,47.0,45.0,30.11,SE,127,4.0,13.0,93,0.00,,,0.00,,2013-03-12 02:42:00,
2013-03-11 22:50:00,48.0,46.0,30.10,SW,217,1.0,7.0,93,0.00,,,0.00,,2013-03-12 02:50:00,
2013-03-11 22:52:00,47.0,45.0,30.11,SSE,157,1.0,11.0,94,0.00,,,0.00,,2013-03-12 02:52:00,
2013-03-11 23:02:00,48.0,46.0,30.11,WSW,242,2.0,9.0,94,0.00,,,0.00,,2013-03-12 03:02:00,
2013-03-11 23:12:00,48.0,46.0,30.11,WSW,242,2.0,9.0,94,0.00,,,0.00,,2013-03-12 03:12:00,
2013-03-11 23:22:00,48.0,46.0,30.10,SW,217,1.0,7.0,93,0.00,,,0.00,,2013-03-12 03:22:00,
2013-03-11 23:32:00,48.0,46.0,30.10,SW,217,1.0,7.0,93,0.00,,,0.00,,2013-03-12 03:32:00,
2013-03-11 23:42:00,48.0,46.0,30.10,SW,217,1.0,7.0,93,0.00,,,0.00,,2013-03-12 03:42:00,
2013-03-11 23:50:00,48.0,46.0,30.09,ESE,107,3.0,10.0,93,0.00,,,0.00,,2013-03-12 03:50:00,